CZ-6A DEB, 56633

Orbit data source: Space-Track

CZ-6A DEB, 56633 is space debris in SSO originally from a launch on Fri, 11 Nov 2022 UTC launched from the Taiyaun Space Center, China (TSC). Debris objects in space refer to the collection of defunct objects orbiting the Earth. Examples of debris include non-operational satellites, rocket bodies, and fragments generated from explosions, collisions, or faulty payload assembly.

Loading next visibility...
Identifier
56633, 2022-151AFH
Orbit
SSO
Country
Flag of CNCN / PRC
Related business
Manufacturer
SAST
Mission
Spacecraft
Bus & Motor
Unknown
Mass
Unknown
Launch date (UTC)
2022-11-11 (3 years ago)
Launch vehicle
Unknown
Launch site
Taiyaun Space Center, China (TSC)
Object type
Payload
Rocket body
Debris
Shape & HBR
Unknown shape, 0.1 m
Radar Cross Section
Small (<0.1 m²)

Expand to show TLE details & history
Last TLE update: 1 day ago

TLE from 1 day ago
0 CZ-6A DEB
1 56633U 22151AFH 25349.43569879  .00000929  00000-0  57499-3 0  9995
2 56633  98.8609 339.1536 0074828 171.9617 188.2769 14.06304093136186
Epoch: 2025-12-15T10:27Z
TLE epoch observation values (Epoch: 2025-12-15T10:27:24.375Z)
Latitude
-0.00006°
Longitude
97.96775°
Altitude
928.643 km
Speed
7.36 km/s
True Right ascension
22h 36m 36s
True Declination
0° 00' 00"
Sunlit
Object was in daylight at epoch
Visualization orbit readout
Latitude
Unknown
Longitude
Unknown
Altitude
Unknown
Speed
Unknown
Apparent Right ascension
Unknown
Apparent Declination
Unknown
Sunlit
N/A
Visualization observer readout
Local Sidereal Time
13:38:25
Azimuth
Unknown
Elevation
Unknown
Doppler factor
Unknown
Orbital elements
Apogee altitude
923.461 km
Perigee altitude
815 km
Semi-major axis
7,247.368 km
Eccentricity
0.00748
Inclination
98.8609°
RAAN
339.1536°
Arg. of periapsis
171.9617°
True anomaly
188.15459°
Mean anomaly
188.2769°
Eccentric anomaly
188.21563°
Mean motion
3.51781 °/min
Orbital period
102.34 mins
BSTAR
0.00057499
Loading maneuver chart data...
Computing Atmospheric mass density...
Loading historical data...
Loading historical data...
Loading historical data...
Loading historical data...
Loading historical data...
Loading historical data...
Loading historical data...

Documentation

Showing up to 5 results
|